User: anonymous   Login
Location: Mount Tamalpais State Park
(37.9108°N, 122.6128°W)
Time: 10:59:59
(UTC-08:00)
Language:

Cosmos 1814 Rocket - Orbit

View from above orbital plane
View from above orbital plane
View from above satellite
View from above satellite

Ground track
Ground track

The orbit data is extracted from the following two-line orbital elements,

1 17304U 87006B   15061.29440341  .00000304  00000-0  10981-3 0  9995
2 17304 074.0597 190.5863 0030784 240.4610 140.1161 14.37453305472901
Epoch (UTC): 02 March 2015 07:03:56
Eccentricity: 0.0030784
inclination: 74.0597°
perigee height: 745 km
apogee height: 789 km
right ascension of ascending node: 190.5863°
argument of perigee: 240.4610°
revolutions per day: 14.37453305
mean anomaly at epoch: 140.1161°
orbit number at epoch: 47290

The dashed part of the orbit path shows where the satellite is in the earth's shadow,  

DLR